Tampa Macdill AFB, FL

2:32 PM EDT on October 23, 2019 (GMT -0400)
MacDill Air Force Base

Weather History for KMCF - September, 2019

Change the Weather History Date:

Monday, September 16, 2019

  Actual Average Record
Temperature  
Mean Temperature 83 °F -  
Max Temperature 90 °F 87 °F 95 °F (2016)
Min Temperature 76 °F 73 °F 68 °F (2001)
Cooling Degree Days 18    
Growing Degree Days 33 (Base 50)    
Moisture  
Dew Point 74 °F    
Average Humidity 78    
Maximum Humidity 92    
Minimum Humidity 57    
Precipitation  
Precipitation 0.00 in - - ()
Sea Level Pressure  
Sea Level Pressure 29.97 in    
Wind  
Wind Speed 4 mph (NNW)    
Max Wind Speed 13 mph    
Max Gust Speed 17 mph    
Visibility 10 miles    
Events      
Averages and records for this station are not official NWS values.
T = Trace of Precipitation, MM = Missing Value Source: NWS Daily Summary

Daily Weather History Graph

Daily Weather History Graph

Search for Another Location

Airport or City:

Astronomy

Sep. 16, 2019 Rise Set
Actual Time 7:15 AM EDT 7:33 PM EDT
Civil Twilight 6:52 AM EDT 7:57 PM EDT
Nautical Twilight 6:24 AM EDT 8:24 PM EDT
Astronomical Twilight 5:57 AM EDT 8:52 PM EDT
Moon 9:18 PM EDT (9/16) 9:13 AM EDT (9/16)
Length of Visible Light 13h 05m
Length of Day
12h 18m
Waning Gibbous, 94% of the Moon is Illuminated
Sep 16
Waning Gibbous
Sep 21
Last Quarter
Sep 28
New
Oct 5
First Quarter
Oct 13
Full

Hourly Weather History & Observations

Time (EDT) Temp. Heat Index Dew Point Humidity Pressure Visibility Wind Dir Wind Speed Gust Speed Precip Events Conditions
12:56 AM 77.0 °F - 73.8 °F 90% 29.96 in 10.0 mi NE 3.5 mph - N/A   Scattered Clouds
1:56 AM 77.2 °F - 73.9 °F 90% 29.96 in 10.0 mi NE 3.5 mph - N/A   Clear
2:56 AM 76.5 °F - 73.2 °F 90% 29.96 in 10.0 mi Calm Calm - N/A   Clear
3:56 AM 76.1 °F - 73.2 °F 91% 29.95 in 10.0 mi Calm Calm - N/A   Clear
4:56 AM 76.5 °F - 73.6 °F 91% 29.96 in 10.0 mi Calm Calm - N/A   Clear
5:56 AM 76.8 °F - 73.9 °F 91% 29.96 in 10.0 mi Calm Calm - N/A   Clear
6:56 AM 76.1 °F - 73.2 °F 91% 29.99 in 10.0 mi Calm Calm - N/A   Clear
7:56 AM 76.6 °F - 74.1 °F 92% 30.01 in 10.0 mi Calm Calm - N/A   Clear
8:56 AM 80.4 °F 86.0 °F 75.4 °F 85% 30.02 in 10.0 mi NNE 3.5 mph - N/A   Clear
9:56 AM 83.1 °F 91.6 °F 76.3 °F 80% 30.02 in 10.0 mi Calm Calm - N/A   Clear
10:56 AM 85.5 °F 95.0 °F 76.1 °F 73% 30.02 in 10.0 mi NNW 6.9 mph - N/A   Clear
11:56 AM 87.3 °F 97.7 °F 76.1 °F 69% 30.01 in 10.0 mi NW 5.8 mph - N/A   Clear
12:56 PM 88.9 °F 98.6 °F 75.0 °F 63% 30.00 in 10.0 mi WNW 4.6 mph - N/A   Clear
1:56 PM 89.2 °F 99.0 °F 74.8 °F 62% 29.98 in 10.0 mi NW 6.9 mph - N/A   Partly Cloudy
2:56 PM 90.0 °F 97.9 °F 73.0 °F 57% 29.97 in 10.0 mi NW 11.5 mph - N/A   Clear
3:56 PM 89.6 °F 98.2 °F 73.8 °F 59% 29.95 in 10.0 mi NNW 12.7 mph - N/A   Clear
4:56 PM 88.7 °F 98.2 °F 74.5 °F 63% 29.94 in 10.0 mi NW 9.2 mph - N/A   Clear
5:56 PM 87.8 °F 96.1 °F 73.6 °F 63% 29.94 in 10.0 mi NW 10.4 mph - N/A   Clear
6:56 PM 85.3 °F 93.0 °F 73.9 °F 69% 29.94 in 10.0 mi NNW 9.2 mph 17.3 mph N/A   Clear
7:56 PM 83.1 °F 90.1 °F 74.3 °F 75% 29.94 in 10.0 mi NNW 8.1 mph - N/A   Clear
8:56 PM 82.4 °F 88.7 °F 74.3 °F 76% 29.95 in 10.0 mi North 5.8 mph - N/A   Clear
9:56 PM 81.9 °F 88.2 °F 74.7 °F 79% 29.97 in 10.0 mi North 5.8 mph - N/A   Clear
10:56 PM 80.6 °F 86.0 °F 74.8 °F 83% 29.97 in 10.0 mi North 5.8 mph - N/A   Clear
11:56 PM 80.2 °F 85.4 °F 74.8 °F 84% 29.96 in 10.0 mi North 3.5 mph - N/A   Clear